| time (UTC) | temp C | wind direction | speed KPH | gust KPH | rain 1hr cm | rain 24hr cm | rain mn cm | humidity % | barometer mb |
| 20260504221223 | 15 | 0.0 | 0.0 | 0.00 | 0.00 | 0.00 | 42 | ||
| 20260504220243 | 15 | 0.0 | 0.0 | 0.00 | 0.00 | 0.00 | 41 | ||
| 20260504215243 | 15 | 0.0 | 0.0 | 0.00 | 0.00 | 0.00 | 42 | ||
| 20260504214243 | 15 | 0.0 | 0.0 | 0.00 | 0.00 | 0.00 | 40 | ||
| 20260504213243 | 15 | 0.0 | 0.0 | 0.00 | 0.00 | 0.00 | 41 | ||
| 20260504212223 | 15 | 0.0 | 0.0 | 0.00 | 0.00 | 0.00 | 40 | ||
| 20260504211223 | 15 | 0.0 | 0.0 | 0.00 | 0.00 | 0.00 | 40 | ||
| 20260504210223 | 15 | 0.0 | 0.0 | 0.00 | 0.00 | 0.00 | 41 | ||
| 20260504205243 | 15 | 0.0 | 0.0 | 0.00 | 0.00 | 0.00 | 40 | ||
| 20260504204236 | 15 | 0.0 | 0.0 | 0.00 | 0.00 | 0.00 | 41 | ||
| 20260504203223 | 15 | 0.0 | 0.0 | 0.00 | 0.00 | 0.00 | 41 | ||
| 20260504202224 | 15 | 0.0 | 0.0 | 0.00 | 0.00 | 0.00 | 41 | ||
| 20260504201223 | 15 | 0.0 | 0.0 | 0.00 | 0.00 | 0.00 | 40 | ||
| 20260504200223 | 15 | 0.0 | 0.0 | 0.00 | 0.00 | 0.00 | 39 | ||
| 20260504195223 | 16 | 0.0 | 0.0 | 0.00 | 0.00 | 0.00 | 39 | ||
| 20260504194223 | 15 | 0.0 | 0.0 | 0.00 | 0.00 | 0.00 | 39 | ||
| 20260504193223 | 15 | 0.0 | 0.0 | 0.00 | 0.00 | 0.00 | 39 | ||
| 20260504192223 | 15 | 0.0 | 0.0 | 0.00 | 0.00 | 0.00 | 40 | ||
| 20260504191223 | 15 | 0.0 | 0.0 | 0.00 | 0.00 | 0.00 | 39 | ||
| 20260504190223 | 15 | 0.0 | 0.0 | 0.00 | 0.00 | 0.00 | 40 | ||
| 20260504185223 | 15 | 0.0 | 0.0 | 0.00 | 0.00 | 0.00 | 40 | ||
| 20260504184223 | 16 | 0.0 | 0.0 | 0.00 | 0.00 | 0.00 | 40 | ||
| 20260504183223 | 16 | 0.0 | 0.0 | 0.00 | 0.00 | 0.00 | 40 | ||
| 20260504182223 | 16 | 0.0 | 0.0 | 0.00 | 0.00 | 0.00 | 39 | ||
| 20260504181224 | 17 | 0.0 | 0.0 | 0.00 | 0.00 | 0.00 | 37 | ||
| 20260504180223 | 18 | 0.0 | 0.0 | 0.00 | 0.00 | 0.00 | 35 | ||
| 20260504175223 | 19 | 0.0 | 0.0 | 0.00 | 0.00 | 0.00 | 33 | ||
| 20260504174223 | 20 | 0.0 | 0.0 | 0.00 | 0.00 | 0.00 | 32 | ||
| 20260504173223 | 20 | 0.0 | 0.0 | 0.00 | 0.00 | 0.00 | 30 | ||
| 20260504172223 | 21 | 0.0 | 0.0 | 0.00 | 0.00 | 0.00 | 30 | ||
| 20260504171223 | 21 | 0.0 | 0.0 | 0.00 | 0.00 | 0.00 | 29 | ||
| 20260504170223 | 21 | 0.0 | 0.0 | 0.00 | 0.00 | 0.00 | 28 | ||
| 20260504160224 | 23 | 0.0 | 0.0 | 0.00 | 0.00 | 0.00 | 26 | ||
| 20260504150224 | 23 | 0.0 | 0.0 | 0.00 | 0.00 | 0.00 | 26 | ||
| 20260504141224 | 23 | 186 | 0.0 | 1.6 | 0.00 | 0.00 | 0.00 | 25 | |
| 20260504140244 | 23 | 270 | 0.0 | 3.2 | 0.00 | 0.00 | 0.00 | 25 | |
| 20260504130224 | 23 | 252 | 0.0 | 3.2 | 0.00 | 0.00 | 0.00 | 26 | |
| 20260504120223 | 23 | 138 | 1.6 | 3.2 | 0.00 | 0.00 | 0.00 | 27 | |
| 20260504110223 | 22 | 0.0 | 0.0 | 0.00 | 0.00 | 0.00 | 28 | ||
| 20260504100223 | 21 | 228 | 1.6 | 3.2 | 0.00 | 0.00 | 0.00 | 29 | |
| 20260504081223 | 18 | 69 | 1.6 | 6.4 | 0.00 | 0.00 | 0.00 | 32 | |
| 20260504080244 | 18 | 0.0 | 0.0 | 0.00 | 0.00 | 0.00 | 32 | ||
| 20260504070223 | 17 | 222 | 0.0 | 3.2 | 0.00 | 0.00 | 0.00 | 36 | |
| 20260504060223 | 18 | 0.0 | 0.0 | 0.00 | 0.00 | 0.00 | 35 | ||
| 20260504050244 | 12 | 0.0 | 0.0 | 0.00 | 0.00 | 0.00 | 55 | ||
| 20260504045224 | 12 | 0.0 | 0.0 | 0.00 | 0.00 | 0.00 | 55 | ||
| 20260504044224 | 12 | 0.0 | 0.0 | 0.00 | 0.00 | 0.00 | 56 | ||
| 20260504043244 | 12 | 0.0 | 0.0 | 0.00 | 0.00 | 0.00 | 55 | ||
| 20260504042223 | 12 | 0.0 | 0.0 | 0.00 | 0.00 | 0.00 | 58 | ||
| 20260504041244 | 11 | 0.0 | 0.0 | 0.00 | 0.00 | 0.00 | 56 | ||
| 20260504040224 | 10 | 0.0 | 0.0 | 0.00 | 0.00 | 0.00 | 59 | ||
| 20260504035223 | 10 | 0.0 | 0.0 | 0.00 | 0.00 | 0.00 | 58 | ||
| 20260504034224 | 10 | 0.0 | 0.0 | 0.00 | 0.00 | 0.00 | 56 | ||
| 20260504033224 | 10 | 0.0 | 0.0 | 0.00 | 0.00 | 0.00 | 55 | ||
| 20260504032244 | 11 | 0.0 | 0.0 | 0.00 | 0.00 | 0.00 | 54 | ||
| 20260504031224 | 11 | 0.0 | 0.0 | 0.00 | 0.00 | 0.00 | 52 | ||
| 20260504030244 | 11 | 0.0 | 0.0 | 0.00 | 0.00 | 0.00 | 52 | ||
| 20260504025224 | 11 | 0.0 | 0.0 | 0.00 | 0.00 | 0.00 | 51 | ||
| 20260504024224 | 11 | 0.0 | 0.0 | 0.00 | 0.00 | 0.00 | 51 | ||
| 20260504023224 | 11 | 0.0 | 0.0 | 0.00 | 0.00 | 0.00 | 51 | ||
| 20260504022344 | 11 | 0.0 | 0.0 | 0.00 | 0.00 | 0.00 | 52 | ||
| 20260504021244 | 11 | 0.0 | 0.0 | 0.00 | 0.00 | 0.00 | 51 | ||
| 20260504020224 | 11 | 0.0 | 0.0 | 0.00 | 0.00 | 0.00 | 52 | ||
| 20260504015224 | 11 | 74 | 0.0 | 3.2 | 0.00 | 0.00 | 0.00 | 52 | |
| 20260504014224 | 11 | 74 | 0.0 | 1.6 | 0.00 | 0.00 | 0.00 | 52 | |
| 20260504013224 | 11 | 0.0 | 0.0 | 0.00 | 0.00 | 0.00 | 52 | ||
| 20260504012224 | 12 | 0.0 | 0.0 | 0.00 | 0.00 | 0.00 | 52 | ||
| 20260504011224 | 11 | 0.0 | 0.0 | 0.00 | 0.00 | 0.00 | 52 | ||
| 20260504010224 | 12 | 0.0 | 0.0 | 0.00 | 0.00 | 0.00 | 52 | ||
| 20260504005224 | 11 | 0.0 | 0.0 | 0.00 | 0.00 | 0.00 | 53 | ||
| 20260504004224 | 12 | 0.0 | 0.0 | 0.00 | 0.00 | 0.00 | 53 | ||
| 20260504003244 | 12 | 0.0 | 0.0 | 0.00 | 0.00 | 0.00 | 53 | ||
| 20260504002224 | 12 | 0.0 | 0.0 | 0.00 | 0.00 | 0.00 | 52 | ||
| 20260504001224 | 12 | 0.0 | 0.0 | 0.00 | 0.00 | 0.00 | 52 | ||
| 20260504000244 | 12 | 0.0 | 0.0 | 0.00 | 0.00 | 0.00 | 53 | ||
| 20260503235245 | 12 | 0.0 | 0.0 | 0.00 | 0.00 | 0.00 | 54 | ||
| 20260503234224 | 12 | 0.0 | 0.0 | 0.00 | 0.00 | 0.00 | 52 | ||
| 20260503233244 | 12 | 0.0 | 0.0 | 0.00 | 0.00 | 0.00 | 53 | ||
| 20260503232224 | 12 | 0.0 | 0.0 | 0.00 | 0.00 | 0.00 | 53 | ||
| 20260503231224 | 12 | 0.0 | 0.0 | 0.00 | 0.00 | 0.00 | 53 | ||
| 20260503230224 | 12 | 0.0 | 0.0 | 0.00 | 0.00 | 0.00 | 54 | ||
| 20260503225224 | 12 | 0.0 | 0.0 | 0.00 | 0.00 | 0.00 | 53 | ||
| 20260503224224 | 12 | 0.0 | 0.0 | 0.00 | 0.00 | 0.00 | 53 | ||
| 20260503223224 | 12 | 0.0 | 0.0 | 0.00 | 0.00 | 0.00 | 51 | ||
| 20260503222224 | 12 | 0.0 | 0.0 | 0.00 | 0.00 | 0.00 | 51 |